EW8735 Weather Reports


time (UTC)temp
F
wind
direction
speed
knots
gust
knots
rain 1hr
in
rain 24hr
in
rain mn
in
humidity
%
barometer
mb
20260905170026 59 132 0.0 0.0 0.00 0.00 0.00 70 1014.9
20260905164525 58 132 0.0 0.0 0.00 0.00 0.00 71 1014.7
20260905163018 57 132 0.0 0.0 0.00 0.00 0.00 74 1014.7
20260905161514 56 132 0.0 0.0 0.00 0.00 0.00 77 1014.6
20260905160019 55 125 0.0 0.0 0.00 0.00 0.00 79 1014.6
20260905154513 55 118 0.0 0.0 0.00 0.00 0.00 79 1014.6
20260905153013 54 118 0.0 0.0 0.00 0.00 0.00 81 1014.6
20260905151513 54 120 0.0 0.0 0.00 0.00 0.00 83 1014.5
20260905150012 53 121 0.0 0.0 0.00 0.00 0.00 83 1014.5
20260905144511 52 121 0.0 0.0 0.00 0.00 0.00 84 1014.6
20260905143010 50 121 0.0 0.0 0.00 0.00 0.00 84 1014.6
20260905141508 50 222 0.0 0.0 0.00 0.00 0.00 84 1014.3
20260905140008 50 222 0.0 0.0 0.00 0.00 0.00 84 1014.3
20260905134505 50 222 0.0 0.0 0.00 0.00 0.00 83 1014.2
20260905133007 50 247 0.0 0.0 0.00 0.00 0.00 83 1014.1
20260905131503 50 247 0.0 0.0 0.00 0.00 0.00 82 1013.9
20260905130000 51 247 0.0 0.0 0.00 0.00 0.00 80 1013.9
20260905124558 52 247 0.0 0.0 0.00 0.00 0.00 78 1013.9
20260905123100 53 247 0.0 0.0 0.00 0.00 0.00 77 1013.9
20260905121601 52 247 0.0 0.0 0.00 0.00 0.00 78 1013.9
20260905120056 53 247 0.0 0.0 0.00 0.00 0.00 79 1014.0
20260905114555 53 260 0.0 0.0 0.00 0.00 0.00 81 1014.0
20260905113056 53 276 0.0 0.0 0.00 0.00 0.00 79 1013.7
20260905111641 53 278 0.0 0.0 0.00 0.00 0.00 76 1013.9
20260905110051 52 328 0.0 0.0 0.00 0.00 0.00 78 1013.8
20260905104550 53 328 0.0 0.0 0.00 0.00 0.00 76 1013.4
20260905103048 53 328 0.0 0.0 0.00 0.00 0.00 75 1013.3
20260905101556 52 328 0.0 0.0 0.00 0.00 0.00 76 1013.3
20260905100050 52 328 0.0 0.0 0.00 0.00 0.00 76 1013.4
20260905094545 53 329 0.0 0.0 0.00 0.00 0.00 76 1013.0
20260905093044 53 329 0.0 0.0 0.00 0.00 0.00 74 1013.0
20260905091543 54 328 0.0 0.0 0.00 0.00 0.00 73 1013.1
20260905090043 54 328 0.0 0.0 0.00 0.00 0.00 73 1013.1
20260905084548 54 328 0.0 0.0 0.00 0.00 0.00 72 1013.3
20260905083041 54 328 0.0 0.0 0.00 0.00 0.00 71 1013.1
20260905081540 53 328 0.0 0.0 0.00 0.00 0.00 73 1013.1
20260905080048 53 332 0.0 0.0 0.00 0.00 0.00 74 1013.0
20260905074541 54 332 0.0 0.0 0.00 0.00 0.00 71 1012.8
20260905073035 55 78 0.0 0.0 0.00 0.00 0.00 66 1012.1
20260905071533 54 78 0.0 0.0 0.00 0.00 0.00 70 1012.1
20260905070025 52 77 0.0 0.0 0.00 0.00 0.00 73 1012.0
20260905064523 50 65 0.0 0.0 0.00 0.00 0.00 75 1011.9
20260905063022 49 65 0.0 0.0 0.00 0.00 0.00 76 1011.8
20260905061525 51 65 0.0 0.0 0.00 0.00 0.00 72 1011.6
20260905060026 51 65 0.0 0.0 0.00 0.00 0.00 70 1011.5
20260905054518 52 65 0.0 0.0 0.00 0.00 0.00 70 1011.4
20260905053018 52 65 0.0 0.0 0.00 0.00 0.00 70 1011.4
20260905051522 51 64 0.0 0.0 0.00 0.00 0.00 70 1011.4
20260905050017 52 52 0.0 0.0 0.00 0.00 0.00 68 1011.1
20260905044517 52 52 0.0 0.0 0.00 0.00 0.00 68 1011.1
20260905043016 53 52 0.0 0.0 0.00 0.00 0.00 67 1011.3
20260905041516 54 51 0.0 0.0 0.00 0.00 0.00 65 1011.4
20260905040016 55 51 0.0 0.0 0.00 0.00 0.00 61 1011.3
20260905034515 57 55 0.0 0.0 0.00 0.00 0.00 57 1011.2
20260905033028 58 55 0.0 0.0 0.00 0.00 0.00 56 1011.0
20260905031515 59 55 0.0 0.0 0.00 0.00 0.00 54 1010.9
20260905030015 61 54 0.0 0.0 0.00 0.00 0.00 52 1011.0
20260905024513 62 55 0.0 0.0 0.00 0.00 0.00 48 1010.8
20260905023012 62 55 0.0 0.0 0.00 0.00 0.00 47 1010.7
20260905021515 63 54 0.0 0.0 0.00 0.00 0.00 47 1010.7
20260905020013 64 56 0.0 0.0 0.00 0.00 0.00 47 1010.6
20260905014510 64 50 0.0 0.0 0.00 0.00 0.00 46 1010.6
20260905013015 65 14 0.0 0.0 0.00 0.00 0.00 46 1010.5
20260905011510 65 76 0.0 0.0 0.00 0.00 0.00 45 1010.5
20260905010010 65 87 0.0 0.0 0.00 0.00 0.00 47 1010.4
20260905004509 67 102 0.0 0.0 0.00 0.00 0.00 44 1010.3
20260905003009 71 303 0.0 0.0 0.00 0.00 0.00 36 1010.1
20260905001509 70 297 0.0 0.0 0.00 0.00 0.00 38 1010.0
20260905000011 69 9 0.0 0.0 0.00 0.00 0.00 37 1010.0
20260904234508 71 4 0.0 0.0 0.00 0.00 0.00 36 1010.0
20260904233007 70 55 0.0 0.0 0.00 0.00 0.00 37 1010.1
20260904231509 68 55 0.0 0.0 0.00 0.00 0.00 42 1010.1
20260904230007 68 55 0.0 0.0 0.00 0.00 0.00 40 1010.2
20260904224509 69 55 0.0 0.0 0.00 0.00 0.00 37 1010.3
20260904223006 71 40 0.0 0.0 0.00 0.00 0.00 35 1010.2
20260904221505 72 343 0.0 0.0 0.00 0.00 0.00 37 1010.2
20260904220002 70 342 0.0 0.0 0.00 0.00 0.00 36 1010.4
20260904214602 70 340 0.0 0.0 0.00 0.00 0.00 36 1010.4
20260904213057 69 346 0.0 0.0 0.00 0.00 0.00 41 1010.3
20260904211556 69 333 0.0 0.0 0.00 0.00 0.00 39 1010.3
20260904210057 68 333 0.0 0.0 0.00 0.00 0.00 38 1010.3
20260904204554 69 333 0.0 0.0 0.00 0.00 0.00 40 1010.2
20260904203054 69 333 0.0 0.0 0.00 0.00 0.00 44 1010.2
20260904201553 68 333 0.0 0.0 0.00 0.00 0.00 44 1010.4
20260904200057 67 332 0.0 0.0 0.00 0.00 0.00 45 1010.4
20260904194549 68 322 0.0 0.0 0.00 0.00 0.00 43 1010.4
20260904193047 67 322 0.0 0.0 0.00 0.00 0.00 45 1010.7
20260904191546 67 322 0.0 0.0 0.00 0.00 0.00 45 1010.7
20260904190048 66 318 0.0 0.0 0.00 0.00 0.00 47 1010.7
20260904184544 65 318 0.0 0.0 0.00 0.00 0.00 47 1010.9
20260904183101 67 318 0.0 0.0 0.00 0.00 0.00 45 1010.9
20260904181543 66 316 0.0 0.0 0.00 0.00 0.00 46 1011.1
20260904180136 64 312 0.0 0.0 0.00 0.00 0.00 49 1011.1
20260904174534 63 312 0.0 0.0 0.00 0.00 0.00 49 1011.2
20260904173030 63 312 0.0 0.0 0.00 0.00 0.00 51 1011.1
20260904171526 61 313 0.0 0.0 0.00 0.00 0.00 55 1011.0